| time (UTC) | temp C | wind direction | speed KPH | gust KPH | rain 1hr cm | rain 24hr cm | rain mn cm | humidity % | barometer mb |
| 20260506185123 | 16 | 216 | 3.2 | 25.7 | 0.00 | 0.00 | 0.00 | 75 | 1016.4 |
| 20260506184617 | 16 | 244 | 4.8 | 29.0 | 0.00 | 0.00 | 0.00 | 75 | 1016.4 |
| 20260506184111 | 16 | 245 | 6.4 | 29.0 | 0.00 | 0.00 | 0.00 | 75 | 1016.6 |
| 20260506183605 | 16 | 262 | 8.0 | 27.4 | 0.00 | 0.00 | 0.00 | 75 | 1016.5 |
| 20260506183100 | 17 | 261 | 6.4 | 27.4 | 0.00 | 0.00 | 0.00 | 75 | 1016.6 |
| 20260506182553 | 16 | 270 | 9.7 | 27.4 | 0.00 | 0.00 | 0.00 | 75 | 1016.5 |
| 20260506182047 | 16 | 254 | 4.8 | 24.1 | 0.00 | 0.00 | 0.00 | 75 | 1016.6 |
| 20260506181541 | 17 | 277 | 9.7 | 24.1 | 0.00 | 0.00 | 0.00 | 75 | 1016.7 |
| 20260506181035 | 17 | 241 | 3.2 | 19.3 | 0.00 | 0.00 | 0.00 | 75 | 1016.7 |
| 20260506180529 | 17 | 274 | 8.0 | 19.3 | 0.00 | 0.00 | 0.00 | 75 | 1016.8 |
| 20260506180023 | 17 | 278 | 8.0 | 20.9 | 0.00 | 0.00 | 0.00 | 75 | 1016.8 |
| 20260506175517 | 17 | 278 | 6.4 | 17.7 | 0.00 | 0.00 | 0.00 | 75 | 1016.7 |
| 20260506175011 | 17 | 209 | 4.8 | 20.9 | 0.00 | 0.00 | 0.00 | 75 | 1016.8 |
| 20260506174505 | 17 | 266 | 8.0 | 20.9 | 0.00 | 0.00 | 0.00 | 75 | 1016.7 |
| 20260506173959 | 18 | 265 | 3.2 | 0.0 | 0.00 | 0.00 | 0.00 | 75 | 1016.8 |
| 20260506173453 | 17 | 280 | 3.2 | 0.0 | 0.00 | 0.00 | 0.00 | 75 | 1016.8 |
| 20260506172947 | 16 | 309 | 4.8 | 0.0 | 0.00 | 0.00 | 0.00 | 75 | 1016.7 |
| 20260506172441 | 16 | 313 | 8.0 | 0.0 | 0.00 | 0.00 | 0.00 | 75 | 1016.7 |
| 20260506171935 | 17 | 325 | 1.6 | 0.0 | 0.00 | 0.00 | 0.00 | 74 | 1016.7 |
| 20260506171429 | 17 | 278 | 4.8 | 22.5 | 0.00 | 0.00 | 0.00 | 74 | 1016.7 |
| 20260506170923 | 16 | 261 | 3.2 | 22.5 | 0.00 | 0.00 | 0.00 | 74 | 1016.7 |
| 20260506170417 | 15 | 277 | 9.7 | 22.5 | 0.00 | 0.00 | 0.00 | 74 | 1016.6 |
| 20260506165911 | 15 | 279 | 12.9 | 25.7 | 0.00 | 0.00 | 0.00 | 74 | 1016.6 |
| 20260506165405 | 15 | 283 | 8.0 | 25.7 | 0.00 | 0.00 | 0.00 | 74 | 1016.7 |
| 20260506164859 | 15 | 293 | 6.4 | 20.9 | 0.00 | 0.00 | 0.00 | 74 | 1016.6 |
| 20260506164353 | 15 | 279 | 8.0 | 22.5 | 0.00 | 0.00 | 0.00 | 74 | 1016.6 |
| 20260506163847 | 15 | 278 | 9.7 | 22.5 | 0.00 | 0.00 | 0.00 | 74 | 1016.5 |
| 20260506163341 | 15 | 272 | 4.8 | 24.1 | 0.00 | 0.00 | 0.00 | 74 | 1016.5 |
| 20260506162835 | 15 | 277 | 12.9 | 24.1 | 0.00 | 0.00 | 0.00 | 74 | 1016.5 |
| 20260506162329 | 15 | 277 | 6.4 | 0.0 | 0.00 | 0.00 | 0.00 | 74 | 1016.5 |
| 20260506161823 | 15 | 285 | 4.8 | 19.3 | 0.00 | 0.00 | 0.00 | 74 | 1016.5 |
| 20260506161317 | 15 | 277 | 6.4 | 19.3 | 0.00 | 0.00 | 0.00 | 74 | 1016.5 |
| 20260506160811 | 15 | 274 | 3.2 | 0.0 | 0.00 | 0.00 | 0.00 | 74 | 1016.5 |
| 20260506160305 | 14 | 291 | 4.8 | 19.3 | 0.00 | 0.00 | 0.00 | 74 | 1016.4 |
| 20260506155759 | 13 | 290 | 8.0 | 19.3 | 0.00 | 0.00 | 0.00 | 74 | 1016.5 |
| 20260506155253 | 13 | 309 | 4.8 | 22.5 | 0.00 | 0.00 | 0.00 | 74 | 1016.5 |
| 20260506154747 | 12 | 306 | 4.8 | 22.5 | 0.00 | 0.00 | 0.00 | 74 | 1016.4 |
| 20260506154241 | 13 | 289 | 9.7 | 17.7 | 0.00 | 0.00 | 0.00 | 73 | 1016.4 |
| 20260506153735 | 13 | 302 | 8.0 | 0.0 | 0.00 | 0.00 | 0.00 | 73 | 1016.4 |
| 20260506153229 | 13 | 302 | 3.2 | 0.0 | 0.00 | 0.00 | 0.00 | 73 | 1016.4 |
| 20260506152723 | 13 | 326 | 1.6 | 0.0 | 0.00 | 0.00 | 0.00 | 73 | 1016.5 |
| 20260506152217 | 13 | 319 | 1.6 | 0.0 | 0.00 | 0.00 | 0.00 | 73 | 1016.5 |
| 20260506151711 | 12 | 316 | 6.4 | 0.0 | 0.00 | 0.00 | 0.00 | 73 | 1016.4 |
| 20260506151205 | 12 | 311 | 6.4 | 0.0 | 0.00 | 0.00 | 0.00 | 73 | 1016.5 |
| 20260506150659 | 12 | 322 | 4.8 | 0.0 | 0.00 | 0.00 | 0.00 | 72 | 1016.5 |
| 20260506150153 | 12 | 313 | 1.6 | 0.0 | 0.00 | 0.00 | 0.00 | 72 | 1016.4 |
| 20260506145647 | 12 | 313 | 3.2 | 0.0 | 0.00 | 0.00 | 0.00 | 72 | 1016.4 |
| 20260506145141 | 12 | 327 | 4.8 | 0.0 | 0.00 | 0.00 | 0.00 | 72 | 1016.4 |
| 20260506144635 | 12 | 320 | 4.8 | 17.7 | 0.00 | 0.00 | 0.00 | 72 | 1016.4 |
| 20260506144129 | 11 | 317 | 8.0 | 17.7 | 0.00 | 0.00 | 0.00 | 72 | 1016.4 |
| 20260506143623 | 11 | 325 | 6.4 | 17.7 | 0.00 | 0.00 | 0.00 | 72 | 1016.4 |
| 20260506143117 | 11 | 325 | 6.4 | 17.7 | 0.00 | 0.00 | 0.00 | 72 | 1016.4 |
| 20260506142611 | 11 | 316 | 9.7 | 17.7 | 0.00 | 0.00 | 0.00 | 72 | 1016.3 |
| 20260506142105 | 11 | 319 | 9.7 | 17.7 | 0.00 | 0.00 | 0.00 | 72 | 1016.3 |
| 20260506141559 | 11 | 318 | 8.0 | 16.1 | 0.00 | 0.00 | 0.00 | 72 | 1016.3 |
| 20260506141053 | 11 | 320 | 6.4 | 0.0 | 0.00 | 0.00 | 0.00 | 71 | 1016.3 |
| 20260506140547 | 11 | 315 | 4.8 | 0.0 | 0.00 | 0.00 | 0.00 | 71 | 1016.1 |
| 20260506140041 | 10 | 306 | 4.8 | 0.0 | 0.00 | 0.00 | 0.00 | 71 | 1016.1 |
| 20260506135535 | 10 | 301 | 3.2 | 0.0 | 0.00 | 0.00 | 0.00 | 71 | 1016.0 |
| 20260506135029 | 10 | 298 | 6.4 | 0.0 | 0.00 | 0.00 | 0.00 | 71 | 1016.0 |
| 20260506134523 | 10 | 297 | 4.8 | 0.0 | 0.00 | 0.00 | 0.00 | 71 | 1015.9 |
| 20260506134017 | 10 | 310 | 4.8 | 0.0 | 0.00 | 0.00 | 0.00 | 71 | 1015.9 |
| 20260506133511 | 10 | 315 | 3.2 | 0.0 | 0.00 | 0.00 | 0.00 | 71 | 1015.8 |
| 20260506133005 | 9 | 322 | 6.4 | 0.0 | 0.00 | 0.00 | 0.00 | 71 | 1015.8 |
| 20260506132459 | 9 | 324 | 4.8 | 0.0 | 0.00 | 0.00 | 0.00 | 71 | 1015.7 |
| 20260506131953 | 9 | 322 | 4.8 | 0.0 | 0.00 | 0.00 | 0.00 | 71 | 1015.8 |
| 20260506131447 | 8 | 315 | 4.8 | 0.0 | 0.00 | 0.00 | 0.00 | 71 | 1015.7 |
| 20260506130941 | 8 | 294 | 1.6 | 0.0 | 0.00 | 0.00 | 0.00 | 71 | 1015.7 |
| 20260506130435 | 8 | 309 | 3.2 | 0.0 | 0.00 | 0.00 | 0.00 | 71 | 1015.7 |
| 20260506125929 | 8 | 313 | 4.8 | 0.0 | 0.00 | 0.00 | 0.00 | 71 | 1015.7 |
| 20260506125423 | 8 | 310 | 6.4 | 0.0 | 0.00 | 0.00 | 0.00 | 71 | 1015.7 |
| 20260506124917 | 8 | 300 | 6.4 | 0.0 | 0.00 | 0.00 | 0.00 | 71 | 1015.7 |
| 20260506124411 | 8 | 306 | 3.2 | 0.0 | 0.00 | 0.00 | 0.00 | 71 | 1015.8 |
| 20260506123905 | 8 | 297 | 6.4 | 0.0 | 0.00 | 0.00 | 0.00 | 71 | 1015.8 |
| 20260506123359 | 8 | 299 | 4.8 | 0.0 | 0.00 | 0.00 | 0.00 | 71 | 1015.8 |
| 20260506122853 | 8 | 305 | 3.2 | 0.0 | 0.00 | 0.00 | 0.00 | 71 | 1015.7 |
| 20260506122347 | 8 | 287 | 0.0 | 0.0 | 0.00 | 0.00 | 0.00 | 71 | 1015.7 |
| 20260506121841 | 8 | 319 | 3.2 | 0.0 | 0.00 | 0.00 | 0.00 | 71 | 1015.7 |
| 20260506121335 | 8 | 316 | 4.8 | 0.0 | 0.00 | 0.00 | 0.00 | 71 | 1015.7 |
| 20260506120829 | 8 | 321 | 3.2 | 0.0 | 0.00 | 0.00 | 0.00 | 72 | 1015.8 |
| 20260506120323 | 8 | 318 | 3.2 | 0.0 | 0.00 | 0.00 | 0.00 | 72 | 1015.8 |
| 20260506115817 | 8 | 314 | 3.2 | 0.0 | 0.00 | 0.00 | 0.00 | 72 | 1015.8 |
| 20260506115311 | 8 | 321 | 3.2 | 0.0 | 0.00 | 0.00 | 0.00 | 72 | 1015.7 |
| 20260506114805 | 8 | 314 | 4.8 | 0.0 | 0.00 | 0.00 | 0.00 | 72 | 1015.7 |
| 20260506114259 | 8 | 316 | 3.2 | 0.0 | 0.00 | 0.00 | 0.00 | 72 | 1015.7 |
| 20260506113753 | 8 | 314 | 3.2 | 0.0 | 0.00 | 0.00 | 0.00 | 72 | 1015.8 |
| 20260506113247 | 8 | 317 | 6.4 | 0.0 | 0.00 | 0.00 | 0.00 | 72 | 1015.7 |
| 20260506112741 | 8 | 317 | 4.8 | 0.0 | 0.00 | 0.00 | 0.00 | 72 | 1015.7 |
| 20260506112235 | 8 | 320 | 3.2 | 0.0 | 0.00 | 0.00 | 0.00 | 72 | 1015.7 |
| 20260506111729 | 8 | 322 | 3.2 | 0.0 | 0.00 | 0.00 | 0.00 | 72 | 1015.7 |
| 20260506111223 | 8 | 320 | 3.2 | 0.0 | 0.00 | 0.00 | 0.00 | 72 | 1015.7 |
| 20260506110717 | 8 | 315 | 1.6 | 0.0 | 0.00 | 0.00 | 0.00 | 72 | 1015.6 |
| 20260506110211 | 8 | 315 | 3.2 | 0.0 | 0.00 | 0.00 | 0.00 | 72 | 1015.6 |
| 20260506105705 | 8 | 319 | 3.2 | 0.0 | 0.00 | 0.00 | 0.00 | 72 | 1015.6 |
| 20260506105159 | 8 | 315 | 1.6 | 0.0 | 0.00 | 0.00 | 0.00 | 72 | 1015.7 |
| 20260506104653 | 8 | 316 | 3.2 | 0.0 | 0.00 | 0.00 | 0.00 | 72 | 1015.7 |
| 20260506104147 | 8 | 328 | 1.6 | 0.0 | 0.00 | 0.00 | 0.00 | 72 | 1015.6 |
| 20260506103641 | 8 | 292 | 1.6 | 0.0 | 0.00 | 0.00 | 0.00 | 72 | 1015.6 |
| 20260506103135 | 8 | 293 | 6.4 | 0.0 | 0.00 | 0.00 | 0.00 | 72 | 1015.6 |
| 20260506102629 | 8 | 286 | 8.0 | 0.0 | 0.00 | 0.00 | 0.00 | 72 | 1015.7 |
| 20260506102123 | 8 | 274 | 3.2 | 0.0 | 0.00 | 0.00 | 0.00 | 72 | 1015.7 |
| 20260506101617 | 8 | 189 | 0.0 | 0.0 | 0.00 | 0.00 | 0.00 | 72 | 1015.7 |
| 20260506101111 | 8 | 268 | 1.6 | 0.0 | 0.00 | 0.00 | 0.00 | 72 | 1015.6 |
| 20260506100605 | 8 | 269 | 6.4 | 17.7 | 0.00 | 0.00 | 0.00 | 72 | 1015.5 |
| 20260506100059 | 8 | 257 | 3.2 | 19.3 | 0.00 | 0.00 | 0.00 | 72 | 1015.6 |
| 20260506095553 | 9 | 254 | 4.8 | 22.5 | 0.00 | 0.00 | 0.00 | 72 | 1015.6 |
| 20260506095047 | 9 | 265 | 8.0 | 25.7 | 0.00 | 0.00 | 0.00 | 72 | 1015.6 |
| 20260506094541 | 9 | 275 | 17.7 | 27.4 | 0.00 | 0.00 | 0.00 | 72 | 1015.5 |
| 20260506094035 | 9 | 281 | 22.5 | 30.6 | 0.00 | 0.00 | 0.00 | 73 | 1015.5 |
| 20260506093529 | 9 | 281 | 22.5 | 30.6 | 0.00 | 0.00 | 0.00 | 73 | 1015.6 |
| 20260506093023 | 9 | 282 | 24.1 | 32.2 | 0.00 | 0.00 | 0.00 | 73 | 1015.5 |
| 20260506092517 | 9 | 278 | 17.7 | 32.2 | 0.00 | 0.00 | 0.00 | 73 | 1015.6 |
| 20260506092011 | 9 | 281 | 19.3 | 35.4 | 0.00 | 0.00 | 0.00 | 73 | 1015.6 |
| 20260506091505 | 9 | 285 | 19.3 | 35.4 | 0.00 | 0.00 | 0.00 | 73 | 1015.6 |
| 20260506090959 | 9 | 286 | 19.3 | 29.0 | 0.00 | 0.00 | 0.00 | 73 | 1015.6 |
| 20260506090453 | 9 | 290 | 12.9 | 29.0 | 0.00 | 0.00 | 0.00 | 73 | 1015.7 |
| 20260506085947 | 9 | 291 | 16.1 | 30.6 | 0.00 | 0.00 | 0.00 | 73 | 1015.7 |
| 20260506085441 | 9 | 288 | 14.5 | 30.6 | 0.00 | 0.00 | 0.00 | 73 | 1015.9 |
| 20260506084935 | 9 | 285 | 12.9 | 32.2 | 0.00 | 0.00 | 0.00 | 73 | 1015.8 |
| 20260506084429 | 9 | 285 | 19.3 | 33.8 | 0.00 | 0.00 | 0.00 | 73 | 1015.9 |
| 20260506083923 | 9 | 286 | 17.7 | 25.7 | 0.00 | 0.00 | 0.00 | 73 | 1015.8 |
| 20260506083417 | 9 | 287 | 14.5 | 30.6 | 0.00 | 0.00 | 0.00 | 73 | 1015.8 |
| 20260506082911 | 9 | 288 | 19.3 | 30.6 | 0.00 | 0.00 | 0.00 | 73 | 1015.8 |
| 20260506082405 | 9 | 290 | 20.9 | 30.6 | 0.00 | 0.00 | 0.00 | 73 | 1015.7 |
| 20260506081859 | 9 | 295 | 16.1 | 29.0 | 0.00 | 0.00 | 0.00 | 73 | 1015.8 |
| 20260506081353 | 9 | 286 | 14.5 | 29.0 | 0.00 | 0.00 | 0.00 | 73 | 1015.8 |
| 20260506080847 | 9 | 290 | 17.7 | 33.8 | 0.00 | 0.00 | 0.00 | 73 | 1015.8 |
| 20260506080341 | 9 | 289 | 20.9 | 32.2 | 0.00 | 0.00 | 0.00 | 73 | 1015.7 |
| 20260506073305 | 9 | 289 | 19.3 | 35.4 | 0.00 | 0.00 | 0.00 | 74 | 1015.8 |
| 20260506072759 | 9 | 290 | 16.1 | 32.2 | 0.00 | 0.00 | 0.00 | 74 | 1015.8 |
| 20260506072253 | 9 | 287 | 17.7 | 32.2 | 0.00 | 0.00 | 0.00 | 74 | 1015.7 |
| 20260506071747 | 9 | 290 | 20.9 | 30.6 | 0.00 | 0.00 | 0.00 | 74 | 1015.6 |
| 20260506071241 | 9 | 293 | 17.7 | 29.0 | 0.00 | 0.00 | 0.00 | 74 | 1015.7 |
| 20260506070735 | 9 | 290 | 17.7 | 27.4 | 0.00 | 0.00 | 0.00 | 74 | 1015.7 |
| 20260506070229 | 9 | 292 | 14.5 | 25.7 | 0.00 | 0.00 | 0.00 | 74 | 1015.6 |
| 20260506062141 | 9 | 306 | 9.7 | 24.1 | 0.00 | 0.00 | 0.00 | 74 | 1015.5 |
| 20260506061635 | 9 | 305 | 11.3 | 24.1 | 0.00 | 0.00 | 0.00 | 74 | 1015.4 |
| 20260506061129 | 9 | 304 | 8.0 | 22.5 | 0.00 | 0.00 | 0.00 | 74 | 1015.4 |
| 20260506060623 | 9 | 293 | 8.0 | 22.5 | 0.00 | 0.00 | 0.00 | 74 | 1015.5 |
| 20260506060117 | 9 | 314 | 4.8 | 20.9 | 0.00 | 0.00 | 0.00 | 74 | 1015.5 |
| 20260506051017 | 9 | 294 | 14.5 | 32.2 | 0.00 | 0.00 | 0.00 | 74 | 1015.3 |
| 20260506050511 | 9 | 303 | 16.1 | 30.6 | 0.00 | 0.00 | 0.00 | 74 | 1015.3 |
| 20260506044953 | 9 | 295 | 17.7 | 38.6 | 0.00 | 0.00 | 0.00 | 75 | 1014.9 |
| 20260506044447 | 9 | 294 | 19.3 | 35.4 | 0.00 | 0.00 | 0.00 | 75 | 1014.8 |
| 20260506043941 | 9 | 295 | 17.7 | 35.4 | 0.00 | 0.00 | 0.00 | 75 | 1014.9 |
| 20260506043435 | 9 | 293 | 16.1 | 30.6 | 0.00 | 0.00 | 0.00 | 75 | 1014.9 |
| 20260506042929 | 9 | 293 | 12.9 | 35.4 | 0.00 | 0.00 | 0.00 | 75 | 1014.9 |
| 20260506042423 | 9 | 288 | 16.1 | 35.4 | 0.00 | 0.00 | 0.00 | 75 | 1014.8 |
| 20260506041917 | 9 | 293 | 12.9 | 29.0 | 0.00 | 0.00 | 0.00 | 75 | 1014.8 |
| 20260506041411 | 9 | 290 | 17.7 | 29.0 | 0.00 | 0.00 | 0.00 | 75 | 1014.6 |
| 20260506040905 | 9 | 292 | 19.3 | 33.8 | 0.00 | 0.00 | 0.00 | 75 | 1014.6 |
| 20260506040359 | 9 | 286 | 19.3 | 35.4 | 0.00 | 0.00 | 0.00 | 75 | 1014.5 |
| 20260506035853 | 9 | 286 | 22.5 | 35.4 | 0.00 | 0.00 | 0.00 | 75 | 1014.5 |
| 20260506035347 | 9 | 288 | 25.7 | 37.0 | 0.00 | 0.00 | 0.00 | 75 | 1014.3 |
| 20260506034841 | 9 | 287 | 27.4 | 37.0 | 0.00 | 0.00 | 0.00 | 75 | 1014.2 |
| 20260506034335 | 9 | 286 | 25.7 | 43.5 | 0.00 | 0.00 | 0.00 | 75 | 1014.2 |
| 20260506033829 | 9 | 284 | 27.4 | 43.5 | 0.00 | 0.00 | 0.00 | 75 | 1014.1 |
| 20260506033323 | 9 | 288 | 24.1 | 43.5 | 0.00 | 0.00 | 0.00 | 75 | 1014.2 |
| 20260506032817 | 9 | 287 | 24.1 | 38.6 | 0.00 | 0.00 | 0.00 | 75 | 1014.2 |
| 20260506032311 | 9 | 287 | 27.4 | 38.6 | 0.00 | 0.00 | 0.00 | 76 | 1014.2 |
| 20260506031805 | 9 | 284 | 24.1 | 38.6 | 0.00 | 0.00 | 0.00 | 76 | 1014.2 |
| 20260506031259 | 9 | 287 | 20.9 | 38.6 | 0.00 | 0.00 | 0.00 | 76 | 1014.2 |
| 20260506030753 | 10 | 292 | 17.7 | 32.2 | 0.00 | 0.00 | 0.00 | 76 | 1014.1 |
| 20260506030247 | 10 | 288 | 20.9 | 35.4 | 0.00 | 0.00 | 0.00 | 76 | 1014.0 |
| 20260506025741 | 10 | 285 | 19.3 | 35.4 | 0.00 | 0.00 | 0.00 | 76 | 1013.8 |
| 20260506025235 | 10 | 283 | 20.9 | 35.4 | 0.00 | 0.00 | 0.00 | 76 | 1013.8 |
| 20260506024729 | 10 | 290 | 17.7 | 37.0 | 0.00 | 0.00 | 0.00 | 76 | 1013.8 |
| 20260506024223 | 10 | 284 | 20.9 | 37.0 | 0.00 | 0.00 | 0.00 | 76 | 1013.8 |
| 20260506023717 | 10 | 287 | 19.3 | 37.0 | 0.00 | 0.00 | 0.00 | 76 | 1013.8 |
| 20260506023211 | 10 | 287 | 25.7 | 38.6 | 0.00 | 0.00 | 0.00 | 76 | 1013.7 |
| 20260506022705 | 10 | 285 | 24.1 | 38.6 | 0.00 | 0.00 | 0.00 | 76 | 1013.7 |
| 20260506022159 | 10 | 287 | 20.9 | 37.0 | 0.00 | 0.00 | 0.00 | 76 | 1013.6 |
| 20260506021653 | 10 | 289 | 25.7 | 32.2 | 0.00 | 0.00 | 0.00 | 76 | 1013.5 |
| 20260506021147 | 10 | 282 | 22.5 | 40.2 | 0.00 | 0.00 | 0.00 | 76 | 1013.4 |
| 20260506020641 | 10 | 282 | 20.9 | 40.2 | 0.00 | 0.00 | 0.00 | 76 | 1013.3 |
| 20260506020135 | 10 | 272 | 20.9 | 40.2 | 0.00 | 0.00 | 0.00 | 76 | 1013.2 |
| 20260506015629 | 10 | 282 | 24.1 | 37.0 | 0.00 | 0.00 | 0.00 | 76 | 1013.2 |
| 20260506015123 | 10 | 278 | 17.7 | 35.4 | 0.00 | 0.00 | 0.00 | 76 | 1013.2 |
| 20260506014617 | 10 | 279 | 16.1 | 33.8 | 0.00 | 0.00 | 0.00 | 76 | 1013.3 |
| 20260506014111 | 11 | 280 | 17.7 | 33.8 | 0.00 | 0.00 | 0.00 | 76 | 1013.4 |
| 20260506013605 | 11 | 269 | 11.3 | 35.4 | 0.00 | 0.00 | 0.00 | 76 | 1013.3 |
| 20260506013059 | 11 | 276 | 16.1 | 35.4 | 0.00 | 0.00 | 0.00 | 76 | 1013.3 |
| 20260506012553 | 11 | 273 | 16.1 | 35.4 | 0.00 | 0.00 | 0.00 | 76 | 1013.3 |
| 20260506012047 | 11 | 275 | 16.1 | 37.0 | 0.00 | 0.00 | 0.00 | 76 | 1013.3 |
| 20260506011541 | 11 | 275 | 16.1 | 37.0 | 0.00 | 0.00 | 0.00 | 76 | 1013.2 |
| 20260506011035 | 11 | 284 | 25.7 | 29.0 | 0.00 | 0.00 | 0.00 | 76 | 1013.2 |
| 20260506010529 | 11 | 285 | 25.7 | 33.8 | 0.00 | 0.00 | 0.00 | 76 | 1013.2 |
| 20260506010023 | 12 | 278 | 17.7 | 33.8 | 0.00 | 0.00 | 0.00 | 76 | 1013.2 |
| 20260506005517 | 12 | 277 | 14.5 | 37.0 | 0.00 | 0.00 | 0.00 | 76 | 1013.2 |
| 20260506005011 | 11 | 281 | 20.9 | 37.0 | 0.00 | 0.00 | 0.00 | 76 | 1013.1 |
| 20260506004505 | 12 | 283 | 22.5 | 37.0 | 0.00 | 0.00 | 0.00 | 76 | 1013.1 |
| 20260506004000 | 12 | 278 | 19.3 | 37.0 | 0.00 | 0.00 | 0.00 | 76 | 1012.9 |
| 20260506003453 | 12 | 284 | 20.9 | 38.6 | 0.00 | 0.00 | 0.00 | 76 | 1013.0 |
| 20260506002947 | 13 | 275 | 16.1 | 38.6 | 0.00 | 0.00 | 0.00 | 76 | 1013.0 |
| 20260506002441 | 13 | 277 | 16.1 | 37.0 | 0.00 | 0.00 | 0.00 | 77 | 1013.1 |
| 20260506001935 | 12 | 282 | 24.1 | 37.0 | 0.00 | 0.00 | 0.00 | 77 | 1013.0 |
| 20260506001429 | 12 | 284 | 20.9 | 37.0 | 0.00 | 0.00 | 0.00 | 76 | 1012.9 |
| 20260506000923 | 12 | 284 | 20.9 | 40.2 | 0.00 | 0.00 | 0.00 | 76 | 1013.0 |
| 20260506000417 | 12 | 289 | 27.4 | 40.2 | 0.00 | 0.00 | 0.00 | 76 | 1013.0 |
| 20260505235911 | 13 | 284 | 19.3 | 30.6 | 0.00 | 0.00 | 0.00 | 76 | 1012.9 |
| 20260505235405 | 13 | 282 | 17.7 | 38.6 | 0.00 | 0.00 | 0.00 | 77 | 1012.9 |
| 20260505234859 | 12 | 284 | 29.0 | 38.6 | 0.00 | 0.00 | 0.00 | 77 | 1012.8 |
| 20260505234353 | 14 | 281 | 19.3 | 32.2 | 0.00 | 0.00 | 0.00 | 77 | 1012.8 |
| 20260505233847 | 13 | 283 | 20.9 | 40.2 | 0.00 | 0.00 | 0.00 | 76 | 1012.9 |
| 20260505233341 | 13 | 285 | 20.9 | 40.2 | 0.00 | 0.00 | 0.00 | 76 | 1012.8 |
| 20260505232835 | 13 | 285 | 22.5 | 43.5 | 0.00 | 0.00 | 0.00 | 76 | 1012.9 |
| 20260505232329 | 13 | 286 | 20.9 | 43.5 | 0.00 | 0.00 | 0.00 | 77 | 1013.0 |
| 20260505231823 | 13 | 288 | 20.9 | 38.6 | 0.00 | 0.00 | 0.00 | 77 | 1013.0 |
| 20260505231317 | 13 | 288 | 24.1 | 32.2 | 0.00 | 0.00 | 0.00 | 76 | 1012.9 |
| 20260505230811 | 15 | 284 | 14.5 | 32.2 | 0.00 | 0.00 | 0.00 | 76 | 1013.0 |
| 20260505230305 | 15 | 283 | 12.9 | 35.4 | 0.00 | 0.00 | 0.00 | 76 | 1013.2 |
| 20260505225759 | 13 | 287 | 24.1 | 35.4 | 0.00 | 0.00 | 0.00 | 77 | 1013.1 |
| 20260505225253 | 15 | 281 | 12.9 | 30.6 | 0.00 | 0.00 | 0.00 | 76 | 1013.2 |
| 20260505224747 | 15 | 279 | 14.5 | 33.8 | 0.00 | 0.00 | 0.00 | 76 | 1013.2 |
| 20260505224241 | 15 | 285 | 16.1 | 33.8 | 0.00 | 0.00 | 0.00 | 76 | 1013.2 |
| 20260505223735 | 15 | 280 | 14.5 | 25.7 | 0.00 | 0.00 | 0.00 | 76 | 1013.3 |
| 20260505223229 | 15 | 281 | 12.9 | 27.4 | 0.00 | 0.00 | 0.00 | 77 | 1013.3 |
| 20260505222723 | 15 | 280 | 16.1 | 32.2 | 0.00 | 0.00 | 0.00 | 77 | 1013.3 |
| 20260505222217 | 15 | 279 | 14.5 | 33.8 | 0.00 | 0.00 | 0.00 | 76 | 1013.4 |
| 20260505221711 | 15 | 278 | 16.1 | 33.8 | 0.00 | 0.00 | 0.00 | 76 | 1013.4 |
| 20260505221205 | 15 | 270 | 11.3 | 45.1 | 0.00 | 0.00 | 0.00 | 76 | 1013.5 |
| 20260505220659 | 15 | 273 | 14.5 | 45.1 | 0.00 | 0.00 | 0.00 | 76 | 1013.5 |
| 20260505220153 | 15 | 283 | 16.1 | 38.6 | 0.00 | 0.00 | 0.00 | 76 | 1013.5 |
| 20260505215647 | 15 | 274 | 12.9 | 38.6 | 0.00 | 0.00 | 0.00 | 76 | 1013.5 |
| 20260505215141 | 15 | 275 | 14.5 | 38.6 | 0.00 | 0.00 | 0.00 | 76 | 1013.5 |
| 20260505214635 | 15 | 273 | 16.1 | 37.0 | 0.00 | 0.00 | 0.00 | 76 | 1013.6 |
| 20260505214129 | 15 | 279 | 16.1 | 35.4 | 0.00 | 0.00 | 0.00 | 76 | 1013.6 |
| 20260505213624 | 15 | 269 | 14.5 | 35.4 | 0.00 | 0.00 | 0.00 | 76 | 1013.7 |
| 20260505213117 | 15 | 283 | 12.9 | 37.0 | 0.00 | 0.00 | 0.00 | 76 | 1013.8 |
| 20260505212611 | 15 | 271 | 14.5 | 37.0 | 0.00 | 0.00 | 0.00 | 76 | 1013.6 |
| 20260505212105 | 14 | 272 | 14.5 | 40.2 | 0.00 | 0.00 | 0.00 | 76 | 1013.8 |
| 20260505211559 | 15 | 278 | 16.1 | 38.6 | 0.00 | 0.00 | 0.00 | 76 | 1013.7 |
| 20260505211053 | 15 | 259 | 12.9 | 38.6 | 0.00 | 0.00 | 0.00 | 76 | 1013.8 |
| 20260505210547 | 14 | 277 | 22.5 | 35.4 | 0.00 | 0.00 | 0.00 | 76 | 1013.7 |
| 20260505210041 | 15 | 278 | 17.7 | 41.8 | 0.00 | 0.00 | 0.00 | 76 | 1013.7 |
| 20260505205535 | 15 | 281 | 20.9 | 41.8 | 0.00 | 0.00 | 0.00 | 76 | 1013.8 |
| 20260505205029 | 15 | 272 | 14.5 | 35.4 | 0.00 | 0.00 | 0.00 | 76 | 1013.7 |
| 20260505204523 | 14 | 285 | 22.5 | 35.4 | 0.00 | 0.00 | 0.00 | 76 | 1013.6 |
| 20260505204017 | 15 | 282 | 24.1 | 40.2 | 0.00 | 0.00 | 0.00 | 76 | 1013.6 |
| 20260505203511 | 15 | 287 | 20.9 | 40.2 | 0.00 | 0.00 | 0.00 | 76 | 1013.7 |
| 20260505203005 | 15 | 274 | 16.1 | 37.0 | 0.00 | 0.00 | 0.00 | 76 | 1013.7 |
| 20260505202459 | 15 | 276 | 14.5 | 37.0 | 0.00 | 0.00 | 0.00 | 76 | 1013.6 |
| 20260505201953 | 16 | 272 | 11.3 | 33.8 | 0.00 | 0.00 | 0.00 | 76 | 1013.8 |
| 20260505201447 | 15 | 272 | 12.9 | 33.8 | 0.00 | 0.00 | 0.00 | 76 | 1013.8 |
| 20260505200941 | 15 | 281 | 12.9 | 25.7 | 0.00 | 0.00 | 0.00 | 76 | 1013.8 |
| 20260505200435 | 16 | 283 | 8.0 | 22.5 | 0.00 | 0.00 | 0.00 | 76 | 1013.9 |
| 20260505195929 | 16 | 286 | 8.0 | 22.5 | 0.00 | 0.00 | 0.00 | 76 | 1013.9 |
| 20260505195423 | 16 | 278 | 9.7 | 22.5 | 0.00 | 0.00 | 0.00 | 76 | 1013.9 |
| 20260505194917 | 15 | 282 | 9.7 | 29.0 | 0.00 | 0.00 | 0.00 | 76 | 1013.8 |
| 20260505194411 | 15 | 308 | 6.4 | 32.2 | 0.00 | 0.00 | 0.00 | 75 | 1013.9 |
| 20260505193905 | 14 | 288 | 16.1 | 32.2 | 0.00 | 0.00 | 0.00 | 75 | 1013.9 |
| 20260505193359 | 16 | 283 | 6.4 | 25.7 | 0.00 | 0.00 | 0.00 | 76 | 1013.9 |
| 20260505192853 | 16 | 270 | 8.0 | 25.7 | 0.00 | 0.00 | 0.00 | 76 | 1014.0 |
| 20260505192347 | 15 | 282 | 8.0 | 29.0 | 0.00 | 0.00 | 0.00 | 76 | 1013.9 |
| 20260505191841 | 14 | 292 | 14.5 | 29.0 | 0.00 | 0.00 | 0.00 | 75 | 1013.9 |
| 20260505191335 | 16 | 285 | 9.7 | 20.9 | 0.00 | 0.00 | 0.00 | 75 | 1013.8 |
| 20260505190829 | 15 | 313 | 4.8 | 32.2 | 0.00 | 0.00 | 0.00 | 75 | 1013.9 |
| 20260505190323 | 14 | 278 | 9.7 | 32.2 | 0.00 | 0.00 | 0.00 | 76 | 1013.9 |
| 20260505185817 | 14 | 302 | 9.7 | 30.6 | 0.00 | 0.00 | 0.00 | 75 | 1013.9 |